Weather in Padunskaya

Russia / Kemerovo Oblast     55°02′02″N   85°02′37″E
temp.,
°C
wind,
m/s
gust,
m/s
humid.,
%
clouds,
%
prec.,
mm/h
press.,
hPa
HPBL,
m
23 april, fri
fri2301:00−2nne410885 0.0 1043259
04:00−2nne38915 0.0 1043221
07:00−2nne410855 0.0 1043336
10:00+3ne79535 0.0 10431383
13:00+5ne8104437 0.0 10421815
16:00+6ene794273 0.0 10402088
19:00+5ene69524 0.0 10401452
22:00+2nne39692 0.0 1040198
24 april, sat
sat2401:000n498217 0.0 1039233
04:000nne51182100 0.0 1037301
07:000nne51176100 0.0 1036415
10:00+4nne6958100 0.0 1035814
13:00+6nne5649100 0.1 10331821
16:00+6nne5648100 0.2 10321638
19:00+6nne4652100 0.3 10321440
22:00+3n236695 0.0 103252
25 april, sun
sun2501:00+1nnw22785 0.0 103228
04:000wnw118287 0.0 103211
07:00+1wnw23815 0.0 103375
10:00+5wnw22595 0.0 1033834
13:00+8w224581 0.0 10321656
16:00+9wnw3343100 0.0 10311692
19:00+8nw224621 0.0 10311445
22:00+5se11605 0.0 103110
26 april, mon
mon2601:00+3se22705 0.0 103114
04:00+2sse22761 0.0 103110
07:00+2sse11748 0.0 103115
10:00+7sse235351 0.0 1030578
13:00+10s334090 0.0 10281628
16:00+12sse343997 0.0 10261927
19:00+11ssw45455 0.0 10251496
22:00+7s41063100 0.0 1025214
27 april, tue
tue2701:00+6sse41167100 0.0 1022255
04:00+5sse4106894 0.0 1019285
07:00+6ssw497435 0.6 1018338
10:00+10w711560 0.0 10181151
13:00+13w811365 0.0 10192210
16:00+14w8103495 0.0 10192450
19:00+13w5840100 0.0 1019896
22:00+9sw2255100 0.0 101937